AB4KY Weather Reports


time (UTC)temp
C
wind
direction
speed
KPH
gust
KPH
rain 1hr
cm
rain 24hr
cm
rain mn
cm
humidity
%
barometer
mb
20260906100000 22 18 1.6 4.8 0.00 0.00 0.00 99 1011.4
20260906095455 22 54 1.6 4.8 0.00 0.00 0.00 99 1010.9
20260906094950 22 106 0.0 3.2 0.00 0.00 0.00 99 1011.1
20260906094449 22 60 0.0 3.2 0.00 0.00 0.00 99 1011.3
20260906093946 22 23 4.8 4.8 0.00 0.00 0.00 99 1011.1
20260906093441 22 40 3.2 4.8 0.00 0.00 0.00 99 1010.8
20260906092936 21 60 0.0 3.2 0.00 0.00 0.00 99 1010.8
20260906092436 21 74 0.0 3.2 0.00 0.00 0.00 99 1011.0
20260906091931 21 90 0.0 3.2 0.00 0.00 0.00 99 1010.8
20260906091427 21 66 0.0 3.2 0.00 0.00 0.00 99 1010.9
20260906090923 21 66 3.2 3.2 0.00 0.00 0.00 99 1010.8
20260906090418 21 65 3.2 4.8 0.00 0.00 0.00 99 1011.0
20260906085912 21 81 0.0 0.0 0.00 0.00 0.00 99 1010.8
20260906085406 21 75 1.6 1.6 0.00 0.00 0.00 99 1010.6
20260906084906 21 90 0.0 3.2 0.00 0.00 0.00 99 1010.9
20260906084400 21 60 0.0 1.6 0.00 0.00 0.00 99 1010.8
20260906083854 21 66 0.0 3.2 0.00 0.00 0.00 99 1010.8
20260906083350 21 74 1.6 1.6 0.00 0.00 0.00 99 1010.8
20260906082849 22 81 0.0 0.0 0.00 0.00 0.00 99 1010.8
20260906082344 22 74 0.0 3.2 0.00 0.00 0.00 99 1010.8
20260906081841 22 71 1.6 4.8 0.00 0.00 0.00 99 1010.5
20260906081336 22 49 0.0 3.2 0.00 0.00 0.00 99 1010.7
20260906080832 21 90 0.0 1.6 0.00 0.00 0.00 99 1010.8
20260906080328 22 90 1.6 1.6 0.00 0.00 0.00 99 1010.8
20260906075827 21 90 0.0 0.0 0.00 0.00 0.00 99 1010.6
20260906075322 21 90 0.0 0.0 0.00 0.00 0.00 99 1010.8
20260906074817 21 90 0.0 1.6 0.00 0.00 0.00 99 1010.5
20260906074317 21 151 0.0 1.6 0.00 0.00 0.00 99 1010.7
20260906073816 21 32 3.2 3.2 0.00 0.00 0.00 99 1010.8
20260906073311 22 90 0.0 1.6 0.00 0.00 0.00 99 1010.6
20260906072808 22 74 1.6 1.6 0.00 0.00 0.00 99 1010.7
20260906072305 22 15 0.0 3.2 0.00 0.00 0.00 99 1010.8
20260906071758 22 74 0.0 3.2 0.00 0.00 0.00 98 1010.7
20260906071258 22 81 0.0 3.2 0.00 0.00 0.00 98 1010.9
20260906070755 22 15 0.0 1.6 0.00 0.00 0.00 98 1010.7
20260906070250 22 14 0.0 3.2 0.00 0.00 0.00 98 1010.9
20260906065750 22 81 0.0 0.0 0.00 0.00 0.00 98 1011.0
20260906065245 22 81 0.0 0.0 0.00 0.00 0.00 97 1011.0
20260906064741 22 186 0.0 3.2 0.00 0.00 0.00 97 1011.0
20260906064237 22 74 0.0 0.0 0.00 0.00 0.00 97 1010.9
20260906063731 22 23 0.0 1.6 0.00 0.00 0.00 97 1011.0
20260906063227 22 66 0.0 3.2 0.00 0.00 0.00 97 1010.8
20260906062722 22 90 0.0 0.0 0.00 0.00 0.00 97 1010.9
20260906062221 23 74 0.0 1.6 0.00 0.00 0.00 97 1011.4
20260906061717 22 160 0.0 1.6 0.00 0.00 0.00 96 1011.1
20260906061214 22 20 0.0 3.2 0.00 0.00 0.00 96 1010.9
20260906060709 22 75 0.0 3.2 0.00 0.00 0.00 96 1011.3
20260906060206 22 28 3.2 4.8 0.00 0.00 0.00 97 1011.0
20260906055701 23 21 3.2 3.2 0.00 0.00 0.00 96 1011.3
20260906055156 22 201 3.2 3.2 0.00 0.00 0.00 97 1011.0
20260906054652 22 188 0.0 0.0 0.00 0.00 0.00 97 1011.3
20260906054146 23 99 0.0 1.6 0.00 0.00 0.00 98 1011.3
20260906053643 22 180 0.0 0.0 0.00 0.00 0.00 97 1011.1
20260906053138 23 180 0.0 0.0 0.00 0.00 0.00 97 1011.1
20260906052633 23 180 0.0 0.0 0.00 0.00 0.00 97 1011.1
20260906052130 22 180 0.0 3.2 0.00 0.00 0.00 97 1010.8
20260906051626 22 157 1.6 1.6 0.00 0.00 0.00 97 1011.0
20260906051120 22 172 0.0 0.0 0.00 0.00 0.00 97 1011.0
20260906050616 23 60 0.0 0.0 0.00 0.00 0.00 98 1011.3
20260906050111 23 29 1.6 3.2 0.00 0.00 0.00 98 1010.9
20260906045609 23 14 0.0 0.0 0.00 0.00 0.00 98 1011.1
20260906045105 23 63 0.0 3.2 0.00 0.00 0.00 98 1010.7
20260906044600 23 23 1.6 1.6 0.00 0.00 0.00 98 1010.6
20260906044055 23 74 0.0 3.2 0.00 0.00 0.00 98 1010.7
20260906043551 23 90 0.0 0.0 0.00 0.00 0.00 98 1010.6
20260906043047 23 66 0.0 1.6 0.00 0.00 0.00 99 1011.0
20260906042545 23 60 0.0 0.0 0.00 0.00 0.00 98 1010.7
20260906042040 23 74 0.0 1.6 0.00 0.00 0.00 98 1010.5
20260906041537 23 90 0.0 1.6 0.00 0.00 0.00 98 1010.5
20260906041031 23 90 0.0 1.6 0.00 0.00 0.00 98 1010.5
20260906040526 23 81 0.0 0.0 0.00 0.00 0.00 97 1010.4
20260906040022 24 81 0.0 1.6 0.00 0.69 0.69 96 1010.3
20260906035517 24 106 0.0 1.6 0.00 0.69 0.69 96 1010.4
20260906035013 24 90 0.0 0.0 0.00 0.69 0.69 96 1010.5
20260906034513 24 90 0.0 0.0 0.00 0.69 0.69 95 1010.5
20260906034008 24 90 0.0 0.0 0.00 0.69 0.69 95 1010.4
20260906033502 24 29 0.0 0.0 0.00 0.69 0.69 95 1010.4
20260906032958 25 29 0.0 0.0 0.00 0.69 0.69 96 1010.5
20260906032454 25 29 0.0 0.0 0.00 0.69 0.69 96 1010.5
20260906031949 25 29 0.0 0.0 0.00 0.69 0.69 94 1010.4
20260906031444 25 29 0.0 0.0 0.00 0.69 0.69 94 1010.4
20260906030939 25 120 0.0 0.0 0.00 0.69 0.69 94 1010.7
20260906030434 25 120 0.0 3.2 0.00 0.69 0.69 94 1010.4
20260906025928 25 106 0.0 3.2 0.00 0.69 0.69 95 1010.4
20260906025422 25 90 0.0 0.0 0.00 0.69 0.69 95 1010.3
20260906024921 25 29 0.0 3.2 0.00 0.69 0.69 95 1010.6
20260906024421 25 126 0.0 1.6 0.00 0.69 0.69 95 1010.2
20260906023916 25 90 0.0 0.0 0.00 0.69 0.69 95 1010.5
20260906023413 25 15 0.0 3.2 0.00 0.69 0.69 96 1010.5
20260906022912 25 106 0.0 3.2 0.00 0.69 0.69 97 1010.5
20260906022407 25 66 0.0 0.0 0.00 0.69 0.69 97 1010.0
20260906021903 25 66 0.0 1.6 0.00 0.69 0.69 97 1010.2
20260906021402 25 90 0.0 0.0 0.00 0.69 0.69 96 1010.1
20260906020857 25 99 0.0 0.0 0.00 0.69 0.69 96 1009.9
20260906020351 25 157 0.0 0.0 0.00 0.69 0.69 96 1009.7
20260906015846 25 174 0.0 3.2 0.00 0.69 0.69 96 1010.0
20260906015345 25 173 0.0 1.6 0.00 0.69 0.69 96 1009.8
20260906014844 25 180 1.6 1.6 0.00 0.69 0.69 96 1009.7
20260906014339 25 114 0.0 0.0 0.00 0.69 0.69 96 1009.8
20260906013836 25 106 0.0 1.6 0.00 0.69 0.69 96 1009.8
20260906013331 25 173 0.0 0.0 0.00 0.69 0.69 96 1009.7
20260906012826 26 173 0.0 0.0 0.00 0.69 0.69 96 1009.7
20260906012321 26 173 0.0 1.6 0.00 0.69 0.69 95 1009.7
20260906011815 25 29 0.0 0.0 0.00 0.69 0.69 95 1009.4
20260906011310 26 106 0.0 0.0 0.00 0.69 0.69 95 1009.5
20260906010806 26 106 0.0 0.0 0.00 0.69 0.69 94 1009.5
20260906010302 25 106 0.0 0.0 0.00 0.69 0.69 93 1009.2
20260906005757 26 106 0.0 0.0 0.00 0.69 0.69 92 1009.1
20260906005256 26 99 0.0 0.0 0.00 0.69 0.69 92 1009.1
20260906004755 26 98 0.0 1.6 0.00 0.69 0.69 91 1009.2
20260906004250 26 114 0.0 0.0 0.00 0.69 0.69 90 1009.2
20260906003750 26 117 0.0 3.2 0.00 0.69 0.69 90 1009.2
20260906003246 27 188 0.0 0.0 0.00 0.69 0.69 89 1009.2
20260906002740 27 188 0.0 0.0 0.00 0.69 0.69 88 1008.9
20260906002235 27 188 0.0 0.0 0.00 0.69 0.69 87 1009.5
20260906001730 27 180 0.0 1.6 0.00 0.69 0.69 87 1009.1
20260906001225 28 165 0.0 0.0 0.00 0.69 0.69 84 1009.2
20260906000721 28 180 0.0 3.2 0.00 0.69 0.69 83 1009.0
20260906000215 28 180 1.6 3.2 0.00 0.69 0.69 81 1009.4
20260905235716 28 120 0.0 0.0 0.00 0.69 0.69 81 1009.6
20260905235210 28 165 0.0 1.6 0.00 0.69 0.69 81 1009.4
20260905234706 29 172 0.0 0.0 0.00 0.69 0.69 82 1009.6
20260905234201 29 172 0.0 0.0 0.00 0.69 0.69 79 1009.7
20260905233656 30 172 0.0 1.6 0.00 0.69 0.69 79 1009.8
20260905233155 30 180 0.0 0.0 0.00 0.69 0.69 78 1009.7
20260905232651 30 172 0.0 0.0 0.00 0.69 0.69 76 1009.8
20260905232146 30 172 0.0 0.0 0.00 0.69 0.69 76 1009.9
20260905231641 30 172 0.0 0.0 0.00 0.69 0.69 74 1009.7
20260905231137 30 172 0.0 0.0 0.00 0.69 0.69 74 1009.8
20260905230633 31 172 0.0 0.0 0.00 0.69 0.69 74 1009.5
20260905230131 31 172 0.0 0.0 0.00 0.69 0.69 72 1009.7
20260905225625 31 172 0.0 1.6 0.00 0.69 0.69 70 1009.4
20260905225120 31 180 0.0 0.0 0.00 0.69 0.69 69 1009.4
20260905224619 32 180 0.0 0.0 0.00 0.69 0.69 68 1009.5
20260905224119 32 195 0.0 0.0 0.00 0.69 0.69 69 1009.3
20260905223616 32 195 0.0 0.0 0.00 0.69 0.69 68 1009.4
20260905223113 32 195 0.0 0.0 0.00 0.69 0.69 66 1009.3
20260905222613 32 195 0.0 0.0 0.00 0.69 0.69 67 1009.0
20260905222108 32 195 0.0 0.0 0.00 0.69 0.69 65 1009.1
20260905221604 32 195 0.0 0.0 0.00 0.69 0.69 65 1009.2
20260905221100 32 195 0.0 0.0 0.00 0.69 0.69 68 1009.5
20260905220555 32 195 0.0 0.0 0.00 0.69 0.69 67 1009.4
20260905220051 32 195 0.0 0.0 0.00 0.69 0.69 67 1009.5
20260905215550 32 180 0.0 3.2 0.00 0.69 0.69 64 1009.4
20260905215047 32 180 4.8 4.8 0.00 0.69 0.69 62 1009.2
20260905214543 32 209 0.0 4.8 0.00 0.69 0.69 63 1009.2
20260905214037 32 203 0.0 3.2 0.00 0.69 0.69 64 1009.4
20260905213532 32 196 0.0 3.2 0.00 0.69 0.69 64 1009.5
20260905213028 32 180 0.0 3.2 0.00 0.69 0.69 62 1009.2
20260905212522 32 190 3.2 4.8 0.00 0.69 0.69 63 1009.3
20260905212022 32 180 1.6 4.8 0.00 0.69 0.69 63 1009.5
20260905211517 32 98 0.0 3.2 0.00 0.69 0.69 65 1009.5
20260905211013 32 195 0.0 3.2 0.00 0.69 0.69 62 1009.3
20260905210509 32 185 0.0 3.2 0.00 0.69 0.69 61 1009.5
20260905210009 32 187 0.0 1.6 0.00 0.69 0.69 64 1009.5
20260905205503 32 29 0.0 0.0 0.00 0.69 0.69 63 1009.5
20260905205002 32 32 3.2 3.2 0.00 0.69 0.69 64 1009.7
20260905204457 32 340 0.0 3.2 0.00 0.69 0.69 61 1009.9
20260905203956 33 261 1.6 4.8 0.00 0.69 0.69 59 1009.7
20260905203452 32 187 6.4 6.4 0.00 0.69 0.69 62 1009.8
20260905202947 32 29 0.0 3.2 0.00 0.69 0.69 63 1009.7
20260905202442 33 15 0.0 1.6 0.00 0.69 0.69 60 1010.0
20260905201938 32 23 0.0 1.6 0.00 0.69 0.69 61 1009.9
20260905201433 33 26 1.6 3.2 0.00 0.69 0.69 61 1010.0
20260905200927 33 262 1.6 4.8 0.00 0.69 0.69 60 1010.1
20260905200423 33 206 1.6 4.8 0.00 0.69 0.69 58 1010.2
20260905195921 33 168 3.2 4.8 0.00 0.69 0.69 56 1010.2
20260905195417 33 270 1.6 3.2 0.00 0.69 0.69 58 1010.4
20260905194912 33 114 0.0 6.4 0.00 0.69 0.69 58 1010.2
20260905194411 33 180 0.0 3.2 0.00 0.69 0.69 58 1010.7
20260905193906 34 192 0.0 4.8 0.00 0.69 0.69 55 1010.4
20260905193401 34 180 0.0 4.8 0.00 0.69 0.69 58 1010.7
20260905192856 33 270 0.0 1.6 0.00 0.69 0.69 57 1010.6
20260905192351 33 353 1.6 4.8 0.00 0.69 0.69 58 1010.8
20260905191851 34 286 0.0 3.2 0.00 0.69 0.69 59 1010.8
20260905191350 33 8 0.0 6.4 0.00 0.69 0.69 58 1010.7
20260905190849 33 346 3.2 3.2 0.00 0.69 0.69 61 1011.1
20260905190343 34 139 3.2 4.8 0.00 0.69 0.69 59 1010.8
20260905185841 34 245 0.0 3.2 0.00 0.69 0.69 57 1010.9
20260905185337 34 254 3.2 4.8 0.00 0.69 0.69 57 1011.1
20260905184830 34 192 1.6 8.0 0.00 0.69 0.69 55 1011.4
20260905184330 34 23 0.0 1.6 0.00 0.69 0.69 57 1011.1
20260905183828 34 180 6.4 6.4 0.00 0.69 0.69 54 1011.4
20260905183324 33 180 0.0 4.8 0.00 0.69 0.69 56 1011.3
20260905182824 33 45 3.2 3.2 0.00 0.69 0.69 57 1011.5
20260905182317 33 160 0.0 4.8 0.00 0.69 0.69 58 1011.7
20260905181813 33 331 0.0 4.8 0.00 0.69 0.69 57 1011.7
20260905181307 33 17 3.2 6.4 0.00 0.69 0.69 59 1011.4
20260905180806 33 191 4.8 6.4 0.00 0.69 0.69 56 1011.6
20260905180301 33 203 4.8 9.7 0.00 0.69 0.69 56 1011.5
20260905175756 32 105 0.0 8.0 0.00 0.69 0.69 58 1011.9
20260905175251 32 82 0.0 6.4 0.00 0.69 0.69 57 1011.8
20260905174746 32 192 0.0 6.4 0.00 0.69 0.69 62 1011.9
20260905174242 32 270 0.0 4.8 0.00 0.69 0.69 58 1012.0
20260905173737 31 75 1.6 8.0 0.00 0.69 0.69 58 1012.2
20260905173233 32 213 3.2 6.4 0.00 0.69 0.69 61 1011.8
20260905172727 32 201 3.2 6.4 0.00 0.69 0.69 60 1011.9
20260905172227 31 180 3.2 4.8 0.00 0.69 0.69 59 1012.2
20260905171723 31 186 4.8 9.7 0.00 0.69 0.69 60 1012.3
20260905171219 31 15 1.6 4.8 0.00 0.69 0.69 59 1012.1
20260905170715 31 192 3.2 8.0 0.00 0.69 0.69 59 1012.4
20260905170210 31 315 3.2 6.4 0.00 0.69 0.69 59 1012.2
20260905165709 31 112 0.0 8.0 0.00 0.69 0.69 59 1012.3
20260905165205 30 120 1.6 8.0 0.00 0.69 0.69 61 1012.5
20260905164700 31 204 0.0 9.7 0.00 0.69 0.69 60 1012.6
20260905164159 30 207 6.4 9.7 0.00 0.69 0.69 60 1012.7
20260905163655 30 222 4.8 9.7 0.00 0.69 0.69 62 1012.9
20260905163152 31 173 0.0 4.8 0.00 0.69 0.69 61 1013.1
20260905162648 31 90 1.6 3.2 0.00 0.69 0.69 65 1013.1
20260905162146 30 204 3.2 9.7 0.00 0.69 0.69 60 1013.1
20260905161641 30 299 3.2 11.3 0.00 0.69 0.69 61 1012.9
20260905161139 30 221 3.2 4.8 0.00 0.69 0.69 65 1012.9
20260905160639 30 172 3.2 12.9 0.00 0.69 0.69 64 1012.7
20260905160133 30 187 1.6 6.4 0.00 0.69 0.69 63 1012.8
20260905155633 29 221 3.2 6.4 0.00 0.69 0.69 64 1012.9
20260905155131 30 346 0.0 4.8 0.00 0.69 0.69 65 1012.8
20260905154626 28 101 3.2 4.8 0.00 0.69 0.69 75 1012.8
20260905154122 30 197 3.2 3.2 0.00 0.69 0.69 68 1012.6
20260905153617 29 150 0.0 9.7 0.00 0.69 0.69 68 1012.6
20260905153112 29 229 4.8 8.0 0.00 0.69 0.69 66 1012.6
20260905152608 30 194 4.8 4.8 0.00 0.69 0.69 66 1012.8
20260905152102 29 60 0.0 3.2 0.00 0.69 0.69 69 1012.8
20260905151557 28 200 4.8 6.4 0.00 0.69 0.69 68 1012.5
20260905151052 28 270 0.0 8.0 0.00 0.69 0.69 73 1012.9
20260905150548 28 192 3.2 3.2 0.00 0.69 0.69 74 1012.9
20260905150046 27 198 3.2 6.4 0.00 0.69 0.69 72 1012.7
20260905145539 27 262 1.6 8.0 0.00 0.69 0.69 73 1013.0
20260905145038 27 239 3.2 11.3 0.00 0.69 0.69 73 1013.1
20260905144533 27 210 4.8 6.4 0.00 0.69 0.69 71 1013.2
20260905144032 27 200 1.6 8.0 0.00 0.69 0.69 74 1013.1
20260905143532 27 8 0.0 4.8 0.00 0.69 0.69 76 1013.2
20260905143027 26 198 8.0 8.0 0.00 0.69 0.69 78 1013.0
20260905142526 26 126 1.6 9.7 0.00 0.69 0.69 79 1012.9
20260905142021 26 168 3.2 4.8 0.00 0.69 0.69 77 1013.3
20260905141515 26 216 4.8 9.7 0.00 0.69 0.69 76 1013.2
20260905141012 26 157 0.0 4.8 0.00 0.69 0.69 78 1013.6
20260905140507 26 192 1.6 8.0 0.00 0.69 0.69 79 1013.5
20260905140005 26 195 0.0 6.4 0.00 0.69 0.69 79 1013.6
20260905135501 25 212 0.0 3.2 0.00 0.69 0.69 81 1013.5
20260905134956 25 120 0.0 6.4 0.00 0.69 0.69 84 1013.7
20260905134455 25 190 3.2 6.4 0.00 0.69 0.69 81 1013.6
20260905133954 25 198 0.0 3.2 0.00 0.69 0.69 83 1013.8
20260905133450 24 173 0.0 4.8 0.00 0.69 0.69 86 1013.8
20260905132944 23 120 0.0 4.8 0.00 0.69 0.69 92 1013.7
20260905132439 22 111 0.0 3.2 0.00 0.69 0.69 96 1013.8
20260905131933 21 79 3.2 3.2 0.00 0.69 0.69 98 1013.8
20260905131430 21 33 3.2 3.2 0.00 0.69 0.69 99 1013.6
20260905130924 21 8 3.2 4.8 0.00 0.69 0.69 99 1013.6
20260905130423 21 52 3.2 8.0 0.00 0.69 0.69 99 1013.7
20260905125918 21 52 3.2 4.8 0.00 0.69 0.69 99 1013.8
20260905125413 21 237 0.0 4.8 0.00 0.69 0.69 99 1013.9
20260905124908 21 109 0.0 4.8 0.00 0.69 0.69 99 1014.3
20260905124405 21 98 0.0 4.8 0.00 0.69 0.69 99 1014.0
20260905123904 21 66 1.6 8.0 0.00 0.69 0.69 99 1013.8
20260905123401 21 75 0.0 6.4 0.00 0.69 0.69 99 1013.9
20260905122856 21 41 3.2 6.4 0.00 0.69 0.69 99 1014.0
20260905122355 21 75 0.0 4.8 0.00 0.69 0.69 99 1014.1
20260905121851 21 74 0.0 4.8 0.00 0.69 0.69 99 1014.4
20260905121347 21 74 1.6 4.8 0.00 0.69 0.69 99 1014.2
20260905120846 21 145 1.6 4.8 0.00 0.69 0.69 99 1014.3
20260905120340 21 74 3.2 3.2 0.00 0.69 0.69 99 1014.1
20260905115836 22 90 0.0 6.4 0.00 0.69 0.69 99 1014.1
20260905115335 22 126 1.6 11.3 0.00 0.69 0.69 99 1014.0
20260905114834 22 157 0.0 3.2 0.00 0.69 0.69 99 1012.4
20260905114334 22 164 3.2 3.2 0.00 0.69 0.69 99 1012.2
20260905113828 22 106 0.0 1.6 0.00 0.69 0.69 99 1012.4
20260905113324 22 135 3.2 3.2 0.00 0.69 0.69 99 1012.2
20260905112819 22 154 1.6 3.2 0.00 0.69 0.69 99 1012.3
20260905112313 22 120 1.6 3.2 0.00 0.69 0.69 99 1012.3
20260905111808 21 106 0.0 1.6 0.00 0.69 0.69 99 1012.2
20260905111303 21 103 0.0 3.2 0.05 0.69 0.69 99 1012.1
20260905110802 21 23 0.0 4.8 0.61 0.69 0.69 99 1012.0
20260905110256 21 214 8.0 12.9 0.89 0.69 0.69 99 1012.2
20260905105752 22 170 3.2 8.0 0.18 0.56 0.56 99 1012.5
20260905105251 22 183 4.8 4.8 0.05 0.53 0.53 99 1012.4
20260905104745 22 166 1.6 4.8 0.13 0.53 0.53 99 1012.1
20260905104241 21 331 0.0 4.8 0.79 0.51 0.51 99 1011.9
20260905103736 22 45 4.8 4.8 3.07 0.51 0.51 96 1011.4
20260905103232 24 194 8.0 8.0 1.32 0.23 0.23 97 1013.1
20260905102727 24 257 3.2 3.2 0.00 0.00 0.00 94 1012.5
20260905102224 24 28 3.2 4.8 0.00 0.00 0.00 95 1012.1
20260905101723 24 29 0.0 4.8 0.00 0.00 0.00 94 1012.3
20260905101221 24 4 3.2 4.8 0.00 0.00 0.00 93 1011.9
20260905100718 24 15 0.0 1.6 0.00 0.00 0.00 96 1012.0
20260905100213 24 66 0.0 1.6 0.00 0.00 0.00 97 1011.7